Year,Month,Day,Hour,Minute,Value (Times are PST for temperature in C)
2019,03,02,00,00,-0.30
2019,03,02,00,01,-0.30
2019,03,02,00,02,-0.30
2019,03,02,00,03,-0.40
2019,03,02,00,04,-0.40
2019,03,02,00,05,-0.40
2019,03,02,00,06,-0.40
2019,03,02,00,07,-0.40
2019,03,02,00,08,-0.40
2019,03,02,00,09,-0.50
2019,03,02,00,10,-0.50
2019,03,02,00,11,-0.50
2019,03,02,00,12,-0.50
2019,03,02,00,13,-0.40
2019,03,02,00,14,-0.40
2019,03,02,00,15,-0.40
2019,03,02,00,16,-0.40
2019,03,02,00,17,-0.40
2019,03,02,00,18,-0.30
2019,03,02,00,19,-0.30
2019,03,02,00,20,-0.30
2019,03,02,00,21,-0.30
2019,03,02,00,22,-0.30
2019,03,02,00,23,-0.30
2019,03,02,00,24,-0.30
2019,03,02,00,25,-0.30
2019,03,02,00,26,-0.30
2019,03,02,00,27,-0.30
2019,03,02,00,28,-0.30
2019,03,02,00,29,-0.30
2019,03,02,00,30,-0.30
2019,03,02,00,31,-0.30
2019,03,02,00,32,-0.30
2019,03,02,00,33,-0.30
2019,03,02,00,34,-0.30
2019,03,02,00,35,-0.30
2019,03,02,00,36,-0.30
2019,03,02,00,37,-0.30
2019,03,02,00,38,-0.30
2019,03,02,00,39,-0.30
2019,03,02,00,40,-0.30
2019,03,02,00,41,-0.30
2019,03,02,00,42,-0.30
2019,03,02,00,43,-0.40
2019,03,02,00,44,-0.40
2019,03,02,00,45,-0.40
2019,03,02,00,46,-0.40
2019,03,02,00,47,-0.50
2019,03,02,00,48,-0.50
2019,03,02,00,49,-0.60
2019,03,02,00,50,-0.60
2019,03,02,00,51,-0.60
2019,03,02,00,52,-0.70
2019,03,02,00,53,-0.70
2019,03,02,00,54,-0.70
2019,03,02,00,55,-0.80
2019,03,02,00,56,-0.80
2019,03,02,00,57,-0.80
2019,03,02,00,58,-0.90
2019,03,02,00,59,-0.90
2019,03,02,01,00,-0.90
2019,03,02,01,01,-0.90
2019,03,02,01,02,-0.90
2019,03,02,01,03,-0.90
2019,03,02,01,04,-0.90
2019,03,02,01,05,-0.90
2019,03,02,01,06,-0.90
2019,03,02,01,07,-0.90
2019,03,02,01,08,-0.90
2019,03,02,01,09,-0.90
2019,03,02,01,10,-0.90
2019,03,02,01,11,-0.80
2019,03,02,01,12,-0.80
2019,03,02,01,13,-0.80
2019,03,02,01,14,-0.70
2019,03,02,01,15,-0.70
2019,03,02,01,16,-0.70
2019,03,02,01,17,-0.70
2019,03,02,01,18,-0.60
2019,03,02,01,19,-0.60
2019,03,02,01,20,-0.60
2019,03,02,01,21,-0.60
2019,03,02,01,22,-0.50
2019,03,02,01,23,-0.50
2019,03,02,01,24,-0.40
2019,03,02,01,25,-0.40
2019,03,02,01,26,-0.30
2019,03,02,01,27,-0.30
2019,03,02,01,28,-0.20
2019,03,02,01,29,-0.20
2019,03,02,01,30,-0.20
2019,03,02,01,31,-0.10
2019,03,02,01,32,-0.10
2019,03,02,01,33,-0.10
2019,03,02,01,34,0.00
2019,03,02,01,35,0.00
2019,03,02,01,36,0.10
2019,03,02,01,37,0.10
2019,03,02,01,38,0.10
2019,03,02,01,39,0.20
2019,03,02,01,40,0.20
2019,03,02,01,41,0.20
2019,03,02,01,42,0.20
2019,03,02,01,43,0.30
2019,03,02,01,44,0.30
2019,03,02,01,45,0.30
2019,03,02,01,46,0.30
2019,03,02,01,47,0.30
2019,03,02,01,48,0.40
2019,03,02,01,49,0.40
2019,03,02,01,50,0.40
2019,03,02,01,51,0.40
2019,03,02,01,52,0.40
2019,03,02,01,53,0.40
2019,03,02,01,54,0.40
2019,03,02,01,55,0.30
2019,03,02,01,56,0.30
2019,03,02,01,57,0.20
2019,03,02,01,58,0.20
2019,03,02,01,59,0.10
2019,03,02,02,00,0.00
2019,03,02,02,01,0.00
2019,03,02,02,02,-0.10
2019,03,02,02,03,-0.10
2019,03,02,02,04,-0.20
2019,03,02,02,05,-0.20
2019,03,02,02,06,-0.30
2019,03,02,02,07,-0.30
2019,03,02,02,08,-0.40
2019,03,02,02,09,-0.40
2019,03,02,02,10,-0.40
2019,03,02,02,11,-0.50
2019,03,02,02,12,-0.50
2019,03,02,02,13,-0.50
2019,03,02,02,14,-0.60
2019,03,02,02,15,-0.60
2019,03,02,02,16,-0.60
2019,03,02,02,17,-0.60
2019,03,02,02,18,-0.60
2019,03,02,02,19,-0.60
2019,03,02,02,20,-0.60
2019,03,02,02,21,-0.50
2019,03,02,02,22,-0.50
2019,03,02,02,23,-0.50
2019,03,02,02,24,-0.50
2019,03,02,02,25,-0.50
2019,03,02,02,26,-0.50
2019,03,02,02,27,-0.40
2019,03,02,02,28,-0.40
2019,03,02,02,29,-0.40
2019,03,02,02,30,-0.40
2019,03,02,02,31,-0.40
2019,03,02,02,32,-0.40
2019,03,02,02,33,-0.40
2019,03,02,02,34,-0.40
2019,03,02,02,35,-0.50
2019,03,02,02,36,-0.50
2019,03,02,02,37,-0.50
2019,03,02,02,38,-0.50
2019,03,02,02,39,-0.50
2019,03,02,02,40,-0.50
2019,03,02,02,41,-0.60
2019,03,02,02,42,-0.60
2019,03,02,02,43,-0.60
2019,03,02,02,44,-0.60
2019,03,02,02,45,-0.60
2019,03,02,02,46,-0.70
2019,03,02,02,47,-0.70
2019,03,02,02,48,-0.70
2019,03,02,02,49,-0.70
2019,03,02,02,50,-0.70
2019,03,02,02,51,-0.80
2019,03,02,02,52,-0.80
2019,03,02,02,53,-0.80
2019,03,02,02,54,-0.90
2019,03,02,02,55,-0.90
2019,03,02,02,56,-1.00
2019,03,02,02,57,-1.00
2019,03,02,02,58,-1.00
2019,03,02,02,59,-1.00
2019,03,02,03,00,-1.10
2019,03,02,03,01,-1.10
2019,03,02,03,02,-1.10
2019,03,02,03,03,-1.10
2019,03,02,03,04,-1.20
2019,03,02,03,05,-1.20
2019,03,02,03,06,-1.20
2019,03,02,03,07,-1.20
2019,03,02,03,08,-1.20
2019,03,02,03,09,-1.20
2019,03,02,03,10,-1.20
2019,03,02,03,11,-1.20
2019,03,02,03,12,-1.10
2019,03,02,03,13,-1.20
2019,03,02,03,14,-1.10
2019,03,02,03,15,-1.10
2019,03,02,03,16,-1.20
2019,03,02,03,17,-1.20
2019,03,02,03,18,-1.20
2019,03,02,03,19,-1.20
2019,03,02,03,20,-1.20
2019,03,02,03,21,-1.10
2019,03,02,03,22,-1.10
2019,03,02,03,23,-1.10
2019,03,02,03,24,-1.10
2019,03,02,03,25,-1.10
2019,03,02,03,26,-1.10
2019,03,02,03,27,-1.00
2019,03,02,03,28,-1.00
2019,03,02,03,29,-1.00
2019,03,02,03,30,-0.90
2019,03,02,03,31,-0.90
2019,03,02,03,32,-0.90
2019,03,02,03,33,-0.80
2019,03,02,03,34,-0.80
2019,03,02,03,35,-0.80
2019,03,02,03,36,-0.80
2019,03,02,03,37,-0.80
2019,03,02,03,38,-0.80
2019,03,02,03,39,-0.90
2019,03,02,03,40,-0.90
2019,03,02,03,41,-0.90
2019,03,02,03,42,-0.90
2019,03,02,03,43,-1.00
2019,03,02,03,44,-1.00
2019,03,02,03,45,-1.00
2019,03,02,03,46,-1.00
2019,03,02,03,47,-1.00
2019,03,02,03,48,-1.00
2019,03,02,03,49,-1.00
2019,03,02,03,50,-1.00
2019,03,02,03,51,-1.00
2019,03,02,03,52,-1.00
2019,03,02,03,53,-0.90
2019,03,02,03,54,-0.90
2019,03,02,03,55,-0.90
2019,03,02,03,56,-0.90
2019,03,02,03,57,-0.90
2019,03,02,03,58,-0.90
2019,03,02,03,59,-0.90
2019,03,02,04,00,-0.80
2019,03,02,04,01,-0.80
2019,03,02,04,02,-0.80
2019,03,02,04,03,-0.70
2019,03,02,04,04,-0.70
2019,03,02,04,05,-0.60
2019,03,02,04,06,-0.60
2019,03,02,04,07,-0.60
2019,03,02,04,08,-0.50
2019,03,02,04,09,-0.50
2019,03,02,04,10,-0.40
2019,03,02,04,11,-0.40
2019,03,02,04,12,-0.30
2019,03,02,04,13,-0.30
2019,03,02,04,14,-0.30
2019,03,02,04,15,-0.20
2019,03,02,04,16,-0.20
2019,03,02,04,17,-0.20
2019,03,02,04,18,-0.10
2019,03,02,04,19,-0.10
2019,03,02,04,20,0.00
2019,03,02,04,21,0.00
2019,03,02,04,22,0.10
2019,03,02,04,23,0.10
2019,03,02,04,24,0.10
2019,03,02,04,25,0.10
2019,03,02,04,26,0.20
2019,03,02,04,27,0.20
2019,03,02,04,28,0.20
2019,03,02,04,29,0.20
2019,03,02,04,30,0.20
2019,03,02,04,31,0.20
2019,03,02,04,32,0.30
2019,03,02,04,33,0.30
2019,03,02,04,34,0.30
2019,03,02,04,35,0.40
2019,03,02,04,36,0.40
2019,03,02,04,37,0.50
2019,03,02,04,38,0.50
2019,03,02,04,39,0.60
2019,03,02,04,40,0.60
2019,03,02,04,41,0.60
2019,03,02,04,42,0.60
2019,03,02,04,43,0.70
2019,03,02,04,44,0.70
2019,03,02,04,45,0.70
2019,03,02,04,46,0.80
2019,03,02,04,47,0.80
2019,03,02,04,48,0.80
2019,03,02,04,49,0.80
2019,03,02,04,50,0.80
2019,03,02,04,51,0.90
2019,03,02,04,52,0.90
2019,03,02,04,53,0.90
2019,03,02,04,54,1.00
2019,03,02,04,55,1.00
2019,03,02,04,56,1.00
2019,03,02,04,57,1.00
2019,03,02,04,58,1.10
2019,03,02,04,59,1.10
2019,03,02,05,00,1.10
2019,03,02,05,01,1.10
2019,03,02,05,02,1.10
2019,03,02,05,03,1.00
2019,03,02,05,04,1.00
2019,03,02,05,05,1.00
2019,03,02,05,06,0.90
2019,03,02,05,07,0.90
2019,03,02,05,08,0.90
2019,03,02,05,09,0.90
2019,03,02,05,10,0.90
2019,03,02,05,11,0.90
2019,03,02,05,12,0.80
2019,03,02,05,13,0.80
2019,03,02,05,14,0.80
2019,03,02,05,15,0.80
2019,03,02,05,16,0.80
2019,03,02,05,17,0.80
2019,03,02,05,18,0.70
2019,03,02,05,19,0.80
2019,03,02,05,20,0.70
2019,03,02,05,21,0.80
2019,03,02,05,22,0.80
2019,03,02,05,23,0.80
2019,03,02,05,24,0.80
2019,03,02,05,25,0.80
2019,03,02,05,26,0.80
2019,03,02,05,27,0.80
2019,03,02,05,28,0.80
2019,03,02,05,29,0.80
2019,03,02,05,30,0.80
2019,03,02,05,31,0.80
2019,03,02,05,32,0.80
2019,03,02,05,33,0.80
2019,03,02,05,34,0.70
2019,03,02,05,35,0.70
2019,03,02,05,36,0.70
2019,03,02,05,37,0.70
2019,03,02,05,38,0.80
2019,03,02,05,39,0.80
2019,03,02,05,40,0.90
2019,03,02,05,41,0.90
2019,03,02,05,42,0.90
2019,03,02,05,43,1.00
2019,03,02,05,44,1.10
2019,03,02,05,45,1.10
2019,03,02,05,46,1.20
2019,03,02,05,47,1.20
2019,03,02,05,48,1.20
2019,03,02,05,49,1.30
2019,03,02,05,50,1.30
2019,03,02,05,51,1.40
2019,03,02,05,52,1.40
2019,03,02,05,53,1.50
2019,03,02,05,54,1.60
2019,03,02,05,55,1.70
2019,03,02,05,56,1.80
2019,03,02,05,57,1.90
2019,03,02,05,58,2.00
2019,03,02,05,59,2.10
2019,03,02,06,00,2.20
2019,03,02,06,01,2.30
2019,03,02,06,02,2.40
2019,03,02,06,03,2.50
2019,03,02,06,04,2.60
2019,03,02,06,05,2.60
2019,03,02,06,06,2.70
2019,03,02,06,07,2.80
2019,03,02,06,08,2.90
2019,03,02,06,09,2.90
2019,03,02,06,10,3.00
2019,03,02,06,11,3.10
2019,03,02,06,12,3.20
2019,03,02,06,13,3.20
2019,03,02,06,14,3.30
2019,03,02,06,15,3.40
2019,03,02,06,16,3.40
2019,03,02,06,17,3.40
2019,03,02,06,18,3.40
2019,03,02,06,19,3.40
2019,03,02,06,20,3.40
2019,03,02,06,21,3.50
2019,03,02,06,22,3.50
2019,03,02,06,23,3.40
2019,03,02,06,24,3.40
2019,03,02,06,25,3.50
2019,03,02,06,26,3.50
2019,03,02,06,27,3.50
2019,03,02,06,28,3.50
2019,03,02,06,29,3.50
2019,03,02,06,30,3.50
2019,03,02,06,31,3.60
2019,03,02,06,32,3.60
2019,03,02,06,33,3.60
2019,03,02,06,34,3.60
2019,03,02,06,35,3.60
2019,03,02,06,36,3.60
2019,03,02,06,37,3.60
2019,03,02,06,38,3.60
2019,03,02,06,39,3.70
2019,03,02,06,40,3.60
2019,03,02,06,41,3.70
2019,03,02,06,42,3.70
2019,03,02,06,43,3.70
2019,03,02,06,44,3.70
2019,03,02,06,45,3.70
2019,03,02,06,46,3.70
2019,03,02,06,47,3.70
2019,03,02,06,48,3.70
2019,03,02,06,49,3.70
2019,03,02,06,50,3.80
2019,03,02,06,51,3.70
2019,03,02,06,52,3.70
2019,03,02,06,53,3.70
2019,03,02,06,54,3.70
2019,03,02,06,55,3.70
2019,03,02,06,56,3.70
2019,03,02,06,57,3.70
2019,03,02,06,58,3.60
2019,03,02,06,59,3.60
2019,03,02,07,00,3.60
2019,03,02,07,01,3.50
2019,03,02,07,02,3.50
2019,03,02,07,03,3.40
2019,03,02,07,04,3.40
2019,03,02,07,05,3.40
2019,03,02,07,06,3.40
2019,03,02,07,07,3.30
2019,03,02,07,08,3.30
2019,03,02,07,09,3.30
2019,03,02,07,10,3.20
2019,03,02,07,11,3.20
2019,03,02,07,12,3.20
2019,03,02,07,13,3.10
2019,03,02,07,14,3.10
2019,03,02,07,15,3.10
2019,03,02,07,16,3.10
2019,03,02,07,17,3.10
2019,03,02,07,18,3.00
2019,03,02,07,19,3.00
2019,03,02,07,20,3.00
2019,03,02,07,21,3.00
2019,03,02,07,22,3.00
2019,03,02,07,23,3.00
2019,03,02,07,24,3.00
2019,03,02,07,25,3.00
2019,03,02,07,26,3.10
2019,03,02,07,27,3.10
2019,03,02,07,28,3.10
2019,03,02,07,29,3.10
2019,03,02,07,30,3.10
2019,03,02,07,31,3.10
2019,03,02,07,32,3.10
2019,03,02,07,33,3.20
2019,03,02,07,34,3.20
2019,03,02,07,35,3.20
2019,03,02,07,36,3.30
2019,03,02,07,37,3.30
2019,03,02,07,38,3.40
2019,03,02,07,39,3.40
2019,03,02,07,40,3.40
2019,03,02,07,41,3.50
2019,03,02,07,42,3.50
2019,03,02,07,43,3.60
2019,03,02,07,44,3.60
2019,03,02,07,45,3.60
2019,03,02,07,46,3.60
2019,03,02,07,47,3.70
2019,03,02,07,48,3.70
2019,03,02,07,49,3.70
2019,03,02,07,50,3.70
2019,03,02,07,51,3.80
2019,03,02,07,52,3.80
2019,03,02,07,53,3.80
2019,03,02,07,54,3.80
2019,03,02,07,55,3.80
2019,03,02,07,56,3.80
2019,03,02,07,57,3.80
2019,03,02,07,58,3.90
2019,03,02,07,59,3.90
2019,03,02,08,00,3.90
2019,03,02,08,01,4.00
2019,03,02,08,02,4.00
2019,03,02,08,03,4.10
2019,03,02,08,04,4.10
2019,03,02,08,05,4.10
2019,03,02,08,06,4.20
2019,03,02,08,07,4.20
2019,03,02,08,08,4.20
2019,03,02,08,09,4.30
2019,03,02,08,10,4.30
2019,03,02,08,11,4.30
2019,03,02,08,12,4.30
2019,03,02,08,13,4.30
2019,03,02,08,14,4.40
2019,03,02,08,15,4.50
2019,03,02,08,16,4.50
2019,03,02,08,17,4.50
2019,03,02,08,18,4.60
2019,03,02,08,19,4.60
2019,03,02,08,20,4.60
2019,03,02,08,21,4.70
2019,03,02,08,22,4.70
2019,03,02,08,23,4.70
2019,03,02,08,24,4.80
2019,03,02,08,25,4.80
2019,03,02,08,26,4.80
2019,03,02,08,27,4.90
2019,03,02,08,28,4.90
2019,03,02,08,29,4.90
2019,03,02,08,30,4.90
2019,03,02,08,31,5.00
2019,03,02,08,32,5.00
2019,03,02,08,33,5.00
2019,03,02,08,34,5.00
2019,03,02,08,35,5.00
2019,03,02,08,36,5.00
2019,03,02,08,37,5.10
2019,03,02,08,38,5.10
2019,03,02,08,39,5.10
2019,03,02,08,40,5.10
2019,03,02,08,41,5.20
2019,03,02,08,42,5.20
2019,03,02,08,43,5.30
2019,03,02,08,44,5.30
2019,03,02,08,45,5.30
2019,03,02,08,46,5.40
2019,03,02,08,47,5.40
2019,03,02,08,48,5.40
2019,03,02,08,49,5.40
2019,03,02,08,50,5.40
2019,03,02,08,51,5.40
2019,03,02,08,52,5.50
2019,03,02,08,53,5.50
2019,03,02,08,54,5.60
2019,03,02,08,55,5.60
2019,03,02,08,56,5.60
2019,03,02,08,57,5.60
2019,03,02,08,58,5.60
2019,03,02,08,59,5.60
2019,03,02,09,00,5.70
2019,03,02,09,01,5.70
2019,03,02,09,02,5.70
2019,03,02,09,03,5.80
2019,03,02,09,04,5.80
2019,03,02,09,05,5.80
2019,03,02,09,06,5.80
2019,03,02,09,07,5.80
2019,03,02,09,08,5.80
2019,03,02,09,09,5.80
2019,03,02,09,10,5.90
2019,03,02,09,11,5.90
2019,03,02,09,12,5.90
2019,03,02,09,13,5.90
2019,03,02,09,14,6.00
2019,03,02,09,15,6.00
2019,03,02,09,16,6.00
2019,03,02,09,17,6.00
2019,03,02,09,18,6.10
2019,03,02,09,19,6.10
2019,03,02,09,20,6.20
2019,03,02,09,21,6.20
2019,03,02,09,22,6.20
2019,03,02,09,23,6.20
2019,03,02,09,24,6.30
2019,03,02,09,25,6.30
2019,03,02,09,26,6.30
2019,03,02,09,27,6.30
2019,03,02,09,28,6.30
2019,03,02,09,29,6.30
2019,03,02,09,30,6.30
2019,03,02,09,31,6.20
2019,03,02,09,32,6.20
2019,03,02,09,33,6.20
2019,03,02,09,34,6.20
2019,03,02,09,35,6.20
2019,03,02,09,36,6.20
2019,03,02,09,37,6.20
2019,03,02,09,38,6.20
2019,03,02,09,39,6.20
2019,03,02,09,40,6.20
2019,03,02,09,41,6.30
2019,03,02,09,42,6.30
2019,03,02,09,43,6.30
2019,03,02,09,44,6.30
2019,03,02,09,45,6.30
2019,03,02,09,46,6.30
2019,03,02,09,47,6.30
2019,03,02,09,48,6.40
2019,03,02,09,49,6.40
2019,03,02,09,50,6.40
2019,03,02,09,51,6.40
2019,03,02,09,52,6.40
2019,03,02,09,53,6.40
2019,03,02,09,54,6.40
2019,03,02,09,55,6.40
2019,03,02,09,56,6.40
2019,03,02,09,57,6.40
2019,03,02,09,58,6.40
2019,03,02,09,59,6.40
2019,03,02,10,00,6.40
2019,03,02,10,01,6.40
2019,03,02,10,02,6.50
2019,03,02,10,03,6.50
2019,03,02,10,04,6.60
2019,03,02,10,05,6.60
2019,03,02,10,06,6.60
2019,03,02,10,07,6.60
2019,03,02,10,08,6.70
2019,03,02,10,09,6.70
2019,03,02,10,10,6.70
2019,03,02,10,11,6.70
2019,03,02,10,12,6.70
2019,03,02,10,13,6.70
2019,03,02,10,14,6.60
2019,03,02,10,15,6.70
2019,03,02,10,16,6.70
2019,03,02,10,17,6.70
2019,03,02,10,18,6.70
2019,03,02,10,19,6.80
2019,03,02,10,20,6.80
2019,03,02,10,21,6.80
2019,03,02,10,22,6.80
2019,03,02,10,23,6.80
2019,03,02,10,24,6.80
2019,03,02,10,25,6.80
2019,03,02,10,26,6.80
2019,03,02,10,27,6.80
2019,03,02,10,28,6.80
2019,03,02,10,29,6.80
2019,03,02,10,30,6.80
2019,03,02,10,31,6.80
2019,03,02,10,32,6.90
2019,03,02,10,33,6.90
2019,03,02,10,34,6.90
2019,03,02,10,35,7.00
2019,03,02,10,36,7.00
2019,03,02,10,37,7.10
2019,03,02,10,38,7.20
2019,03,02,10,39,7.20
2019,03,02,10,40,7.20
2019,03,02,10,41,7.20
2019,03,02,10,42,7.20
2019,03,02,10,43,7.10
2019,03,02,10,44,7.10
2019,03,02,10,45,7.00
2019,03,02,10,46,7.00
2019,03,02,10,47,7.00
2019,03,02,10,48,7.00
2019,03,02,10,49,7.00
2019,03,02,10,50,7.00
2019,03,02,10,51,6.90
2019,03,02,10,52,6.90
2019,03,02,10,53,6.90
2019,03,02,10,54,6.90
2019,03,02,10,55,6.90
2019,03,02,10,56,6.90
2019,03,02,10,57,6.90
2019,03,02,10,58,6.90
2019,03,02,10,59,6.90
2019,03,02,11,00,6.90
2019,03,02,11,01,6.90
2019,03,02,11,02,6.90
2019,03,02,11,03,7.00
2019,03,02,11,04,7.00
2019,03,02,11,05,7.10
2019,03,02,11,06,7.10
2019,03,02,11,07,7.10
2019,03,02,11,08,7.20
2019,03,02,11,09,7.20
2019,03,02,11,10,7.20
2019,03,02,11,11,7.20
2019,03,02,11,12,7.20
2019,03,02,11,13,7.20
2019,03,02,11,14,7.20
2019,03,02,11,15,7.30
2019,03,02,11,16,7.30
2019,03,02,11,17,7.30
2019,03,02,11,18,7.30
2019,03,02,11,19,7.30
2019,03,02,11,20,7.30
2019,03,02,11,21,7.30
2019,03,02,11,22,7.30
2019,03,02,11,23,7.30
2019,03,02,11,24,7.40
2019,03,02,11,25,7.40
2019,03,02,11,26,7.40
2019,03,02,11,27,7.40
2019,03,02,11,28,7.40
2019,03,02,11,29,7.40
2019,03,02,11,30,7.40
2019,03,02,11,31,7.40
2019,03,02,11,32,7.40
2019,03,02,11,33,7.40
2019,03,02,11,34,7.40
2019,03,02,11,35,7.40
2019,03,02,11,36,7.40
2019,03,02,11,37,7.40
2019,03,02,11,38,7.50
2019,03,02,11,39,7.50
2019,03,02,11,40,7.40
2019,03,02,11,41,7.40
2019,03,02,11,42,7.40
2019,03,02,11,43,7.40
2019,03,02,11,44,7.40
2019,03,02,11,45,7.40
2019,03,02,11,46,7.40
2019,03,02,11,47,7.50
2019,03,02,11,48,7.50
2019,03,02,11,49,7.50
2019,03,02,11,50,7.40
2019,03,02,11,51,7.40
2019,03,02,11,52,7.40
2019,03,02,11,53,7.40
2019,03,02,11,54,7.50
2019,03,02,11,55,7.50
2019,03,02,11,56,7.60
2019,03,02,11,57,7.60
2019,03,02,11,58,7.70
2019,03,02,11,59,7.70
2019,03,02,12,00,7.70
2019,03,02,12,01,7.70
2019,03,02,12,02,7.80
2019,03,02,12,03,7.80
2019,03,02,12,04,7.80
2019,03,02,12,05,7.80
2019,03,02,12,06,7.80
2019,03,02,12,07,7.70
2019,03,02,12,08,7.70
2019,03,02,12,09,7.70
2019,03,02,12,10,7.70
2019,03,02,12,11,7.70
2019,03,02,12,12,7.70
2019,03,02,12,13,7.70
2019,03,02,12,14,7.70
2019,03,02,12,15,7.70
2019,03,02,12,16,7.70
2019,03,02,12,17,7.70
2019,03,02,12,18,7.70
2019,03,02,12,19,7.80
2019,03,02,12,20,7.80
2019,03,02,12,21,7.90
2019,03,02,12,22,8.00
2019,03,02,12,23,8.00
2019,03,02,12,24,8.10
2019,03,02,12,25,8.10
2019,03,02,12,26,8.10
2019,03,02,12,27,8.20
2019,03,02,12,28,8.10
2019,03,02,12,29,8.10
2019,03,02,12,30,8.10
2019,03,02,12,31,8.10
2019,03,02,12,32,8.00
2019,03,02,12,33,7.90
2019,03,02,12,34,7.90
2019,03,02,12,35,7.80
2019,03,02,12,36,7.80
2019,03,02,12,37,7.80
2019,03,02,12,38,7.80
2019,03,02,12,39,7.90
2019,03,02,12,40,7.90
2019,03,02,12,41,8.00
2019,03,02,12,42,8.00
2019,03,02,12,43,8.10
2019,03,02,12,44,8.10
2019,03,02,12,45,8.10
2019,03,02,12,46,8.20
2019,03,02,12,47,8.10
2019,03,02,12,48,8.10
2019,03,02,12,49,8.20
2019,03,02,12,50,8.20
2019,03,02,12,51,8.20
2019,03,02,12,52,8.30
2019,03,02,12,53,8.30
2019,03,02,12,54,8.30
2019,03,02,12,55,8.30
2019,03,02,12,56,8.30
2019,03,02,12,57,8.30
2019,03,02,12,58,8.30
2019,03,02,12,59,8.20
2019,03,02,13,00,8.20
2019,03,02,13,01,8.10
2019,03,02,13,02,8.10
2019,03,02,13,03,8.10
2019,03,02,13,04,8.10
2019,03,02,13,05,8.10
2019,03,02,13,06,8.10
2019,03,02,13,07,8.10
2019,03,02,13,08,8.10
2019,03,02,13,09,8.20
2019,03,02,13,10,8.20
2019,03,02,13,11,8.20
2019,03,02,13,12,8.20
2019,03,02,13,13,8.20
2019,03,02,13,14,8.30
2019,03,02,13,15,8.30
2019,03,02,13,16,8.40
2019,03,02,13,17,8.40
2019,03,02,13,18,8.40
2019,03,02,13,19,8.30
2019,03,02,13,20,8.30
2019,03,02,13,21,8.30
2019,03,02,13,22,8.30
2019,03,02,13,23,8.30
2019,03,02,13,24,8.30
2019,03,02,13,25,8.40
2019,03,02,13,26,8.40
2019,03,02,13,27,8.40
2019,03,02,13,28,8.40
2019,03,02,13,29,8.40
2019,03,02,13,30,8.50
2019,03,02,13,31,8.60
2019,03,02,13,32,8.60
2019,03,02,13,33,8.60
2019,03,02,13,34,8.50
2019,03,02,13,35,8.50
2019,03,02,13,36,8.50
2019,03,02,13,37,8.50
2019,03,02,13,38,8.50
2019,03,02,13,39,8.60
2019,03,02,13,40,8.60
2019,03,02,13,41,8.70
2019,03,02,13,42,8.70
2019,03,02,13,43,8.70
2019,03,02,13,44,8.70
2019,03,02,13,45,8.70
2019,03,02,13,46,8.70
2019,03,02,13,47,8.70
2019,03,02,13,48,8.70
2019,03,02,13,49,8.80
2019,03,02,13,50,8.70
2019,03,02,13,51,8.70
2019,03,02,13,52,8.60
2019,03,02,13,53,8.60
2019,03,02,13,54,8.60
2019,03,02,13,55,8.60
2019,03,02,13,56,8.50
2019,03,02,13,57,8.60
2019,03,02,13,58,8.60
2019,03,02,13,59,8.60
2019,03,02,14,00,8.70
2019,03,02,14,01,8.70
2019,03,02,14,02,8.80
2019,03,02,14,03,8.80
2019,03,02,14,04,8.80
2019,03,02,14,05,8.80
2019,03,02,14,06,8.90
2019,03,02,14,07,8.90
2019,03,02,14,08,8.90
2019,03,02,14,09,8.90
2019,03,02,14,10,8.90
2019,03,02,14,11,8.90
2019,03,02,14,12,8.90
2019,03,02,14,13,8.80
2019,03,02,14,14,8.80
2019,03,02,14,15,8.90
2019,03,02,14,16,8.90
2019,03,02,14,17,9.00
2019,03,02,14,18,9.00
2019,03,02,14,19,8.90
2019,03,02,14,20,8.90
2019,03,02,14,21,8.80
2019,03,02,14,22,8.80
2019,03,02,14,23,8.80
2019,03,02,14,24,8.80
2019,03,02,14,25,8.80
2019,03,02,14,26,8.80
2019,03,02,14,27,8.80
2019,03,02,14,28,8.80
2019,03,02,14,29,8.80
2019,03,02,14,30,8.80
2019,03,02,14,31,8.80
2019,03,02,14,32,8.80
2019,03,02,14,33,8.80
2019,03,02,14,34,8.90
2019,03,02,14,35,8.90
2019,03,02,14,36,9.00
2019,03,02,14,37,9.00
2019,03,02,14,38,9.10
2019,03,02,14,39,9.20
2019,03,02,14,40,9.30
2019,03,02,14,41,9.30
2019,03,02,14,42,9.30
2019,03,02,14,43,9.30
2019,03,02,14,44,9.30
2019,03,02,14,45,9.30
2019,03,02,14,46,9.30
2019,03,02,14,47,9.20
2019,03,02,14,48,9.20
2019,03,02,14,49,9.20
2019,03,02,14,50,9.10
2019,03,02,14,51,9.20
2019,03,02,14,52,9.20
2019,03,02,14,53,9.10
2019,03,02,14,54,9.10
2019,03,02,14,55,9.10
2019,03,02,14,56,9.00
2019,03,02,14,57,9.00
2019,03,02,14,58,9.00
2019,03,02,14,59,9.00
2019,03,02,15,00,9.00
2019,03,02,15,01,9.00
2019,03,02,15,02,9.00
2019,03,02,15,03,9.00
2019,03,02,15,04,9.00
2019,03,02,15,05,8.90
2019,03,02,15,06,8.90
2019,03,02,15,07,8.90
2019,03,02,15,08,8.90
2019,03,02,15,09,8.90
2019,03,02,15,10,8.90
2019,03,02,15,11,8.80
2019,03,02,15,12,8.80
2019,03,02,15,13,8.80
2019,03,02,15,14,8.80
2019,03,02,15,15,8.90
2019,03,02,15,16,8.90
2019,03,02,15,17,9.00
2019,03,02,15,18,9.00
2019,03,02,15,19,9.00
2019,03,02,15,20,9.10
2019,03,02,15,21,9.10
2019,03,02,15,22,9.10
2019,03,02,15,23,9.20
2019,03,02,15,24,9.20
2019,03,02,15,25,9.10
2019,03,02,15,26,9.10
2019,03,02,15,27,9.10
2019,03,02,15,28,9.10
2019,03,02,15,29,9.10
2019,03,02,15,30,9.10
2019,03,02,15,31,9.20
2019,03,02,15,32,9.20
2019,03,02,15,33,9.20
2019,03,02,15,34,9.20
2019,03,02,15,35,9.20
2019,03,02,15,36,9.20
2019,03,02,15,37,9.20
2019,03,02,15,38,9.20
2019,03,02,15,39,9.20
2019,03,02,15,40,9.20
2019,03,02,15,41,9.20
2019,03,02,15,42,9.20
2019,03,02,15,43,9.20
2019,03,02,15,44,9.20
2019,03,02,15,45,9.10
2019,03,02,15,46,9.10
2019,03,02,15,47,9.10
2019,03,02,15,48,9.10
2019,03,02,15,49,9.10
2019,03,02,15,50,9.10
2019,03,02,15,51,9.10
2019,03,02,15,52,9.10
2019,03,02,15,53,9.10
2019,03,02,15,54,9.00
2019,03,02,15,55,9.00
2019,03,02,15,56,8.90
2019,03,02,15,57,8.90
2019,03,02,15,58,8.90
2019,03,02,15,59,8.90
2019,03,02,16,00,8.90
2019,03,02,16,01,9.00
2019,03,02,16,02,9.00
2019,03,02,16,03,9.00
2019,03,02,16,04,9.00
2019,03,02,16,05,9.00
2019,03,02,16,06,9.00
2019,03,02,16,07,9.00
2019,03,02,16,08,9.00
2019,03,02,16,09,9.10
2019,03,02,16,10,9.10
2019,03,02,16,11,9.10
2019,03,02,16,12,9.10
2019,03,02,16,13,9.10
2019,03,02,16,14,9.00
2019,03,02,16,15,9.00
2019,03,02,16,16,8.90
2019,03,02,16,17,8.90
2019,03,02,16,18,8.90
2019,03,02,16,19,8.90
2019,03,02,16,20,8.90
2019,03,02,16,21,9.00
2019,03,02,16,22,9.00
2019,03,02,16,23,9.10
2019,03,02,16,24,9.10
2019,03,02,16,25,9.10
2019,03,02,16,26,9.10
2019,03,02,16,27,9.10
2019,03,02,16,28,9.10
2019,03,02,16,29,9.10
2019,03,02,16,30,9.10
2019,03,02,16,31,9.10
2019,03,02,16,32,9.00
2019,03,02,16,33,9.00
2019,03,02,16,34,9.00
2019,03,02,16,35,8.90
2019,03,02,16,36,8.90
2019,03,02,16,37,8.90
2019,03,02,16,38,8.80
2019,03,02,16,39,8.80
2019,03,02,16,40,8.80
2019,03,02,16,41,8.80
2019,03,02,16,42,8.80
2019,03,02,16,43,8.80
2019,03,02,16,44,8.80
2019,03,02,16,45,8.70
2019,03,02,16,46,8.70
2019,03,02,16,47,8.70
2019,03,02,16,48,8.70
2019,03,02,16,49,8.70
2019,03,02,16,50,8.70
2019,03,02,16,51,8.60
2019,03,02,16,52,8.60
2019,03,02,16,53,8.60
2019,03,02,16,54,8.50
2019,03,02,16,55,8.50
2019,03,02,16,56,8.50
2019,03,02,16,57,8.50
2019,03,02,16,58,8.50
2019,03,02,16,59,8.50
2019,03,02,17,00,8.50
2019,03,02,17,01,8.50
2019,03,02,17,02,8.40
2019,03,02,17,03,8.50
2019,03,02,17,04,8.50
2019,03,02,17,05,8.50
2019,03,02,17,06,8.50
2019,03,02,17,07,8.60
2019,03,02,17,08,8.60
2019,03,02,17,09,8.50
2019,03,02,17,10,8.50
2019,03,02,17,11,8.40
2019,03,02,17,12,8.40
2019,03,02,17,13,8.40
2019,03,02,17,14,8.30
2019,03,02,17,15,8.30
2019,03,02,17,16,8.20
2019,03,02,17,17,8.20
2019,03,02,17,18,8.20
2019,03,02,17,19,8.10
2019,03,02,17,20,8.10
2019,03,02,17,21,8.10
2019,03,02,17,22,8.10
2019,03,02,17,23,8.10
2019,03,02,17,24,8.10
2019,03,02,17,25,8.00
2019,03,02,17,26,8.00
2019,03,02,17,27,7.90
2019,03,02,17,28,7.90
2019,03,02,17,29,7.90
2019,03,02,17,30,7.90
2019,03,02,17,31,7.90
2019,03,02,17,32,7.90
2019,03,02,17,33,7.90
2019,03,02,17,34,7.90
2019,03,02,17,35,7.80
2019,03,02,17,36,7.80
2019,03,02,17,37,7.80
2019,03,02,17,38,7.70
2019,03,02,17,39,7.70
2019,03,02,17,40,7.60
2019,03,02,17,41,7.60
2019,03,02,17,42,7.50
2019,03,02,17,43,7.40
2019,03,02,17,44,7.40
2019,03,02,17,45,7.30
2019,03,02,17,46,7.30
2019,03,02,17,47,7.20
2019,03,02,17,48,7.20
2019,03,02,17,49,7.20
2019,03,02,17,50,7.10
2019,03,02,17,51,7.10
2019,03,02,17,52,7.10
2019,03,02,17,53,7.00
2019,03,02,17,54,7.00
2019,03,02,17,55,6.90
2019,03,02,17,56,6.90